Regional Weather Roundup
Issued by NWS Upton, NY

Current Version | Previous Version | Graphics & Text | Print | Product List | Glossary Off
Versions: 1 2 3 4 5 6 7 8 9 10 11 12 13 14 15 16 17 18 19 20 21 22 23 24 25 26 27 28 29 30 31 32 33 34 35 36 37 38 39 40 41 42 43 44 45 46 47 48 49

000
ASUS41 KOKX 261607
RWROKX

REGIONAL WEATHER ROUNDUP
NATIONAL WEATHER SERVICE NEW YORK NY
1200 PM EDT SUN APR 26 2015

NOTE: "FAIR" INDICATES FEW OR NO CLOUDS BELOW 12,000 FEET WITH NO
SIGNIFICANT WEATHER AND/OR OBSTRUCTIONS TO VISIBILITY.

NYZ071-072-176-178-NJZ106-104-261700-
NEW YORK CITY METRO AREA


CITY           SKY/WX    TMP DP  RH WIND       PRES   REMARKS
CENTRAL PARK   SUNNY     59  25  27 VRB3      29.72F
LAGUARDIA APRT MOSUNNY   56  30  37 CALM      29.69F
KENNEDY INTL   PTSUNNY   54  33  45 S12       29.71S
NEWARK/LIBERTY MOSUNNY   57  27  31 VRB3      29.70F
BRNX BOT. GARD   N/A     54  28  37 NW9       29.71F
TETERBORO      PTSUNNY   56  27  32 VRB6      29.69F
$$

NYZ177-179-078>081-261700-
LONG ISLAND NEW YORK

CITY           SKY/WX    TMP DP  RH WIND       PRES   REMARKS
FARMINGDALE    MOSUNNY   56  30  37 NW10      29.69F
ISLIP          MOSUNNY   57  31  37 NW12      29.67F
SHIRLEY        PTSUNNY   58  32  37 NW9       29.69F
WESTHAMPTON    SUNNY     56  31  38 N8        29.69F
MONTAUK POINT    N/A     53  32  44 W7        29.68F
$$

NYZ052-065-067-261700-
HUDSON VALLEY

CITY           SKY/WX    TMP DP  RH WIND       PRES   REMARKS
WHITE PLAINS   PTSUNNY   56  28  34 NE9       29.67F
NEWBURGH       PTSUNNY   54  34  47 CALM      29.70F
MONTGOMERY     PTSUNNY   58  31  35 NE6       29.69F
POUGHKEEPSIE   PTSUNNY   56  30  37 MISG      29.68F
ALBANY         CLOUDY    55  29  36 NW12G18   29.71F
$$

NJZ001-105-106-008-010-013-015-019>022-104-261700-
NEW JERSEY

CITY           SKY/WX    TMP DP  RH WIND       PRES   REMARKS
NEWARK/LIBERTY MOSUNNY   57  27  31 VRB3      29.70F
TETERBORO      PTSUNNY   56  27  32 VRB6      29.69F
CALDWELL       PTSUNNY   56  28  34 MISG      29.70F
MORRISTOWN     PTSUNNY   57  28  33 NE5       29.71F
SOMERVILLE     PTSUNNY   57  26  30 NW6       29.68F
SUSSEX         CLOUDY    54  29  38 NW7       29.71F
ANDOVER          N/A     56  29  35 VRB7      29.70F
TRENTON        PTSUNNY   58  30  34 E10       29.70F
MILLVILLE      MOSUNNY   59  33  37 NE8       29.69S
ATLANTIC CITY  SUNNY     56  34  43 E14       29.70S
WRIGHTSTOWN    SUNNY     57  28  33 N1        29.68F
TOMS RIVER     SUNNY     54  30  40 NE10      29.71F
BELMAR         SUNNY     54  28  37 E8        29.71S
$$

PAZ047>061-062-071-261700-
EASTERN PENNSYLVANIA

CITY           SKY/WX    TMP DP  RH WIND       PRES   REMARKS
PHILADELPHIA   MOSUNNY   59  33  37 NE10      29.71F
ALLENTOWN      PTSUNNY   56  30  37 CALM      29.71F
SCRANTON       CLOUDY    53  28  38 N7        29.72F
$$

CTZ002-004>006-009-010-012-RIZ004-006-007-MAZ004-011-015-261700-
SOUTHERN NEW ENGLAND
 IN CT

CITY           SKY/WX    TMP DP  RH WIND       PRES   REMARKS
BRADLEY INTL   PTSUNNY   57  30  35 N8        29.66F
HARTFORD       CLOUDY    55  30  38 VRB6      29.67F
DANBURY        PTSUNNY   55  29  36 NW7       29.69F
WTRBRY/OXFORD  PTSUNNY   54  30  40 N6        29.68F
BRIDGEPORT     PTSUNNY   53  32  44 S10       29.68F
MERIDEN        MOSUNNY   58  26  29 NW9G20    29.66F
NEW HAVEN      PTSUNNY   53  34  48 SW10G17   29.67F
CHESTER        FAIR      55  30  38 N10G16    29.67F
GROTON         PTSUNNY   51  34  52 SW16      29.65F
WILLIMANTIC    CLOUDY    55  29  36 NW9       29.66F

 IN RI

CITY           SKY/WX    TMP DP  RH WIND       PRES   REMARKS
PROVIDENCE     PTSUNNY   55  29  36 VRB6      29.65F
BLOCK ISLAND   SUNNY     54  30  40 W9        29.67F
WESTERLY       PTSUNNY   56  31  38 N10       29.66F

 IN MA

CITY           SKY/WX    TMP DP  RH WIND       PRES   REMARKS
BOSTON         PTSUNNY   51  35  54 E10       29.67S
WORCESTER      CLOUDY    50  26  39 NW13G21   29.65S
WESTFIELD      CLOUDY    56  29  35 N3        29.66F
PROVINCETOWN   CLOUDY   N/A N/A N/A NW8       29.67S
NANTUCKET      SUNNY     53  33  46 N7        29.65F
$$

ANZ330-335-338-340-345-350-353-355-261700-
COASTAL MARINE OBSERVATIONS


STATION/POSITION TIME  SKY/WX   TEMP    WIND        PRES    VSBY  WAVE
                                AIR SEA DIR/SP/G                  HT/PER
                 (UTC)          (F)     (DEG/KT/KT) (MB)    (MI)  (FT/S)
NY HARB ENTRANCE 1550            47 47  140/  4/  6 1005.7          1/11
4S FIRE IS       1503               45                N/A           1/12
20S FIRE ISLAND  1550            44 44   CALM  /  2 1005.9          1/11
23SW MTP         NOT AVBL
HUDSON CANYON    NOT AVBL
EXECUTION ROCKS  NOT AVBL
WESTERN LI SOUND NOT AVBL
CENTRAL LI SOUND NOT AVBL
EASTERN LI SOUND 1500            47     260/  8/ 10   N/A
ROBBINS REEF     1500            51      50/  7/  8 1004.9
$$


>>>>>>>>>>>>>>>>>>>>>>>>>>>> KEY <<<<<<<<<<<<<<<<<<<<<<<<<<<
>                                                          <
>     SKY/WX - SKY CONDITION/PRESENT WEATHER               <
>     TMP    - TEMPERATURE IN FAHRENHEIT                   <
>     DP     - DEWPOINT IN FAHRENHEIT                      <
>     RH     - RELATIVE HUMIDITY IN PERCENT                <
>     WIND   - DIRECTION AND SPEED IN MPH                  <
>     PRES   - MEAN SEA LEVEL PRESSURE IN INCHES OF HG     <
>     WCI    - WIND CHILL INDEX                            <
>     VSB    - VISIBILITY IN MILES                         <
>     HX     - HEAT INDEX                                  <
>     TC     - TEMPERATURE IN CELSIUS                      <
>     VRB    - VARIABLE WIND DIRECTION                     <
>                                                          <
>>>>>>>>>>>>>>>>>>>>>>>>>>>> KEY <<<<<<<<<<<<<<<<<<<<<<<<<<<





USA.gov is the U.S. government's official web portal to all federal, state and local government web resources and services.